Date String (YYYY-MM-DD hh:mm:ss) UTC,Instrument flags,Ambient pressure (hPa),Sample flow (lpm),Bypass flow (lpm),Sample temperature (°C),Ambient temperature (°C),ASC tube jacket temperature (°C),LED temperature (°C),Box temperature (°C),Sample RH (%),Span deviation,Mass concentration (μg/m³),Mass concentration (μg/m³),Mass concentration (μg/m³)
DateTimeUTC,F1_M11,P_M11,Q1_M11,Q2_M11,T1_M11,T2_M11,T3_M11,T4_M11,T5_M11,U1_M11,ZSPAN_M11,X0_M11,X2_M11,X1_M11
2021-09-20 09:00:00,,0824.2,5.01,0.00,29.0,28.4,00.0,38.0,30.9,21.0,0002.8,0031.10,0010.14,0007.08
2021-09-20 09:01:00,,0824.3,5.00,0.00,29.1,28.4,00.0,38.0,30.9,20.9,0002.6,0030.41,0010.16,0007.09
2021-09-20 09:02:00,,0824.3,5.00,0.00,29.1,28.4,00.0,38.1,30.9,20.9,0002.5,0030.32,0010.19,0007.10
2021-09-20 09:03:00,,0824.3,5.01,0.00,29.1,28.5,00.0,38.1,30.9,20.9,0002.8,0030.94,0010.20,0007.11
2021-09-20 09:04:00,,0824.2,5.01,0.00,29.1,28.5,00.0,38.1,30.9,20.9,0003.3,0032.17,0010.19,0007.14
2021-09-20 09:05:00,,0824.2,4.99,0.00,29.1,28.5,00.0,38.1,30.9,20.9,0003.3,0032.03,0010.19,0007.16
2021-09-20 09:06:00,,0824.2,5.00,0.00,29.1,28.5,00.0,38.1,31.0,20.9,0003.3,0032.16,0010.19,0007.18
2021-09-20 09:07:00,,0824.2,5.01,0.00,29.2,28.5,00.0,38.1,31.0,20.8,0003.3,0030.59,0010.23,0007.19
2021-09-20 09:08:00,,0824.2,4.98,0.00,29.2,28.5,00.0,38.2,31.0,20.7,0003.6,0030.46,0010.23,0007.19
2021-09-20 09:09:00,,0824.4,5.00,0.00,29.2,28.6,00.0,38.2,31.0,20.7,0003.8,0029.88,0010.16,0007.19
2021-09-20 09:10:00,,0824.3,5.00,0.00,29.2,28.6,00.0,38.2,31.1,20.7,0003.6,0031.01,0010.23,0007.19
2021-09-20 09:11:00,,0824.2,4.99,0.00,29.3,28.6,00.0,38.2,31.1,20.6,0003.5,0032.08,0010.28,0007.22
2021-09-20 09:12:00,,0824.2,4.99,0.00,29.3,28.6,00.0,38.2,31.1,20.6,0003.8,0032.14,0010.26,0007.26
2021-09-20 09:13:00,,0824.2,5.00,0.00,29.3,28.7,00.0,38.3,31.1,20.6,0003.6,0032.71,0010.33,0007.29
2021-09-20 09:14:00,,0824.2,5.01,0.00,29.3,28.7,00.0,38.3,31.2,20.6,0003.4,0032.37,0010.37,0007.35
2021-09-20 09:15:00,,0824.2,5.00,0.00,29.3,28.7,00.0,38.3,31.2,20.5,0003.1,0032.15,0010.39,0007.38
2021-09-20 09:16:00,,0824.1,4.99,0.00,29.3,28.7,00.0,38.3,31.2,20.5,0002.9,0032.12,0010.48,0007.39
2021-09-20 09:17:00,,0824.1,5.00,0.00,29.4,28.7,00.0,38.3,31.2,20.5,0002.8,0032.06,0010.41,0007.43
2021-09-20 09:18:00,,0824.1,5.02,0.00,29.4,28.7,00.0,38.4,31.3,20.4,0003.2,0032.45,0010.39,0007.48
2021-09-20 09:19:00,,0824.1,4.99,0.00,29.4,28.7,00.0,38.4,31.3,20.3,0003.0,0033.17,0010.36,0007.50
2021-09-20 09:20:00,,0824.0,5.00,0.00,29.4,28.7,00.0,38.4,31.2,20.3,0002.8,0034.25,0010.39,0007.49
2021-09-20 09:21:00,,0824.0,5.01,0.00,29.4,28.7,00.0,38.4,31.2,20.3,0003.1,0033.33,0010.35,0007.50
2021-09-20 09:22:00,,0824.0,4.99,0.00,29.4,28.7,00.0,38.4,31.2,20.3,0003.0,0034.64,0010.39,0007.51
2021-09-20 09:23:00,,0823.9,5.02,0.00,29.4,28.7,00.0,38.4,31.2,20.3,0002.8,0035.87,0010.43,0007.50
2021-09-20 09:24:00,,0823.7,5.00,0.00,29.4,28.7,00.0,38.4,31.2,20.4,0003.0,0035.73,0010.43,0007.50
2021-09-20 09:25:00,,0823.7,4.99,0.00,29.4,28.7,00.0,38.4,31.1,20.5,0003.1,0035.54,0010.42,0007.48
2021-09-20 09:26:00,,0823.7,5.00,0.00,29.4,28.7,00.0,38.5,31.1,20.4,0003.3,0034.69,0010.50,0007.48
2021-09-20 09:27:00,,0823.8,5.01,0.00,29.4,28.7,00.0,38.4,31.2,20.4,0003.3,0035.72,0010.46,0007.50
2021-09-20 09:28:00,,0823.8,4.99,0.00,29.4,28.7,00.0,38.4,31.2,20.3,0003.5,0034.69,0010.53,0007.49
2021-09-20 09:29:00,,0824.0,5.01,0.00,29.4,28.7,00.0,38.5,31.2,20.2,0003.0,0032.85,0010.40,0007.42
2021-09-20 09:30:00,,0824.1,5.00,0.00,29.4,28.7,00.0,38.5,31.3,19.9,0003.2,0032.35,0010.46,0007.40
2021-09-20 09:31:00,,0824.1,4.99,0.00,29.5,28.7,00.0,38.5,31.3,19.6,0003.3,0030.74,0010.25,0007.25
2021-09-20 09:32:00,,0824.1,5.01,0.00,29.5,28.7,00.0,38.5,31.3,19.2,0003.2,0029.98,0009.91,0007.03
2021-09-20 09:33:00,,0824.0,5.01,0.00,29.5,28.8,00.0,38.5,31.3,19.3,0003.1,0027.95,0009.52,0006.79
2021-09-20 09:34:00,,0823.9,4.99,0.00,29.5,28.8,00.0,38.5,31.3,19.3,0003.3,0025.80,0009.17,0006.56
2021-09-20 09:35:00,,0823.8,5.00,0.00,29.5,28.8,00.0,38.5,31.3,19.1,0003.5,0023.92,0008.70,0006.26
2021-09-20 09:36:00,,0823.7,5.01,0.00,29.6,28.8,00.0,38.5,31.4,18.8,0003.3,0022.27,0008.16,0005.93
2021-09-20 09:37:00,,0823.7,5.00,0.00,29.6,28.9,00.0,38.6,31.4,18.8,0003.1,0021.57,0007.61,0005.58
2021-09-20 09:38:00,,0823.8,5.01,0.00,29.6,28.9,00.0,38.6,31.4,18.9,0002.6,0019.66,0007.19,0005.27
2021-09-20 09:39:00,,0823.9,5.00,0.00,29.6,28.9,00.0,38.6,31.4,18.6,0002.4,0018.76,0006.64,0004.93
2021-09-20 09:40:00,,0824.1,5.00,0.00,29.6,28.9,00.0,38.6,31.5,18.6,0000.8,0017.59,0006.26,0004.63
2021-09-20 09:41:00,,0824.2,5.01,0.00,29.7,28.9,00.0,38.6,31.5,18.6,0000.0,0015.67,0005.71,0004.28
2021-09-20 09:42:00,,0824.3,5.00,0.00,29.7,29.0,00.0,38.7,31.5,18.9,0000.0,0015.85,0005.43,0004.12
2021-09-20 09:43:00,,0824.3,5.01,0.00,29.7,29.0,00.0,38.7,31.5,19.2,0000.0,0016.55,0005.46,0004.13
2021-09-20 09:44:00,,0824.3,4.99,0.00,29.7,29.0,00.0,38.7,31.5,19.4,0000.0,0016.63,0005.52,0004.16
2021-09-20 09:45:00,,0824.3,4.98,0.00,29.7,29.0,00.0,38.7,31.5,19.7,0000.0,0017.42,0005.67,0004.31
2021-09-20 09:46:00,,0824.2,5.01,0.00,29.7,29.0,00.0,38.7,31.5,19.7,0002.2,0018.40,0006.03,0004.51
2021-09-20 09:47:00,,0824.2,4.99,0.00,29.7,29.0,00.0,38.7,31.5,19.2,0002.1,0020.03,0006.29,0004.66
2021-09-20 09:48:00,,0824.2,5.01,0.00,29.8,29.0,00.0,38.8,31.6,18.6,0002.1,0019.37,0006.25,0004.65
2021-09-20 09:49:00,,0824.1,4.99,0.00,29.8,29.0,00.0,38.8,31.6,18.3,0000.0,0018.23,0006.00,0004.50
2021-09-20 09:50:00,,0824.1,5.00,0.00,29.8,29.0,00.0,38.8,31.5,18.2,0000.7,0017.69,0005.82,0004.37
2021-09-20 09:51:00,,0824.0,5.00,0.00,29.8,29.1,00.0,38.8,31.5,18.4,0002.9,0017.34,0005.69,0004.27
2021-09-20 09:52:00,,0823.8,4.99,0.00,29.8,29.0,00.0,38.8,31.6,18.4,0003.1,0017.33,0005.61,0004.22
2021-09-20 09:53:00,,0823.8,5.00,0.00,29.8,29.0,00.0,38.8,31.6,18.5,0003.0,0016.42,0005.50,0004.15
2021-09-20 09:54:00,,0823.8,5.01,0.00,29.8,29.0,00.0,38.8,31.5,18.7,0003.0,0014.51,0005.27,0004.01
2021-09-20 09:55:00,,0823.7,4.99,0.00,29.8,29.0,00.0,38.8,31.5,18.8,0002.5,0012.86,0004.95,0003.83
2021-09-20 09:56:00,,0823.7,5.00,0.00,29.7,29.0,00.0,38.8,31.5,19.2,0000.0,0011.27,0004.62,0003.59
2021-09-20 09:57:00,,0823.7,5.00,0.00,29.7,28.9,00.0,38.8,31.4,19.4,0000.0,0011.38,0004.31,0003.39
2021-09-20 09:58:00,,0823.7,4.99,0.00,29.7,28.9,00.0,38.8,31.4,19.6,0000.0,0010.64,0004.12,0003.28
2021-09-20 09:59:00,,0823.9,5.01,0.00,29.7,28.9,00.0,38.8,31.4,19.5,0000.0,0010.37,0004.22,0003.33
